This is the latest recevied weather packets stored in our database for station/object AA4OM-2. If no packets are shown the sender has not sent any weather packets the latest 1 day(s).
| Time | Temp. | Humidity | Pressure | Rain* | Wind** | Luminosity | Snow |
|---|---|---|---|---|---|---|---|
| 1778052534 | 11.11° C | 96% | 1010.2 hPa | 0 mm | - | 0 W/m² | - |
| 1778051929 | 11.11° C | 96% | 1010.2 hPa | 7.11 mm | - | 0 W/m² | - |
| 1778051627 | 11.11° C | 96% | 1010.2 hPa | 10.67 mm | - | 0 W/m² | - |
| 1778051021 | 11.11° C | 96% | 1009.1 hPa | 4.83 mm | - | 0 W/m² | - |
| 1778050718 | 11.11° C | 96% | 1009 hPa | 4.32 mm | - | 0 W/m² | - |
| 1778050112 | 11.11° C | 95% | 1009.9 hPa | 0 mm | - | 0 W/m² | - |
| 1778049807 | 11.11° C | 95% | 1009.4 hPa | 0 mm | - | 0 W/m² | - |
| 1778049505 | 11.67° C | 95% | 1009.2 hPa | 0 mm | - | 0 W/m² | - |
| 1778049202 | 11.67° C | 95% | 1009.4 hPa | 0 mm | - | 0 W/m² | - |
| 1778048598 | 11.67° C | 95% | 1008.9 hPa | 0 mm | - | 0 W/m² | - |
| 1778048294 | 11.67° C | 95% | 1008.9 hPa | 0 mm | - | 0 W/m² | - |
| 1778047689 | 12.22° C | 95% | 1008.7 hPa | 0 mm | - | 0 W/m² | - |
| 1778047387 | 12.22° C | 95% | 1008.5 hPa | 1.78 mm | - | 0 W/m² | - |
| 1778047083 | 12.78° C | 95% | 1008.3 hPa | 3.05 mm | - | 0 W/m² | - |
| 1778045569 | 13.33° C | 94% | 1008.3 hPa | 0 mm | - | 0 W/m² | - |
| 1778044662 | 14.44° C | 92% | 1009.1 hPa | 0 mm | - | 0 W/m² | - |
| 1778044358 | 15° C | 92% | 1008.8 hPa | 0 mm | - | 0 W/m² | - |
| 1778044056 | 16.11° C | 90% | 1008.5 hPa | 0 mm | - | 0 W/m² | - |
| 1778043753 | 18.33° C | 92% | 1008.7 hPa | 0 mm | - | 0 W/m² | - |
| 1778043146 | 18.89° C | 95% | 1007.9 hPa | 3.05 mm | - | 0 W/m² | - |
| 1778042844 | 18.33° C | 95% | 1007.8 hPa | 14.99 mm | - | 0 W/m² | - |
| 1778042541 | 18.33° C | 95% | 1007.9 hPa | 24.64 mm | - | 0 W/m² | - |
| 1778042238 | 18.33° C | 94% | 1008.3 hPa | 13.72 mm | - | 0 W/m² | - |
| 1778041936 | 18.89° C | 93% | 1007.9 hPa | 6.1 mm | - | 0 W/m² | - |
| 1778041333 | 18.89° C | 92% | 1007.3 hPa | 0 mm | - | 0 W/m² | - |
* Rain latest hour (hover to see other rain measurements)
** Current wind speed in m/s (hover to see current wind gust speed)